Terminal Aerodrome Forecast
Issued by NWS

Home | Current Version | Previous Version | Text Only | Print | Product List | Glossary On
Versions: 1 2 3 4 5 6 7 8 9 10 11 12 13 14 15 16 17 18 19 20 21 22 23 24 25 26 27 28 29 30 31 32 33 34 35 36 37 38 39 40 41 42 43 44 45 46 47 48 49 50
000
FTUS46 KEKA 290500 AAA
TAFACV
TAF AMD
KACV 290556Z 2906/3006 VRB04KT 1/2SM FG VV002
     FM291800 28005KT 2SM BR OVC003
     FM292100 31009KT 6SM BR BKN005
     FM300300 33005KT 2SM BR OVC004=

USA.gov is the U.S. government's official web portal to all federal, state and local government web resources and services.